Westminster, MD

5:12 AM EST on November 20, 2019 (GMT -0500)
Carroll County Regional-Poage

Weather History for KDMW - September, 2019

Change the Weather History Date:

Sunday, September 1, 2019

  Actual Average (WUND) Record (WUND)
Temperature  
Mean Temperature 76 °F -  
Max Temperature 84 °F - - (-1)
Min Temperature 68 °F - - (-1)
Cooling Degree Days 11    
Growing Degree Days 26 (Base 50)    
Moisture  
Dew Point 62 °F    
Average Humidity 68    
Maximum Humidity 88    
Minimum Humidity 53    
Precipitation  
Precipitation 0.01 in - - ()
Sea Level Pressure  
Sea Level Pressure 30.27 in    
Wind  
Wind Speed 4 mph (ESE)    
Max Wind Speed 9 mph    
Max Gust Speed -    
Visibility 10 miles    
Events Rain    
Averages and records for this station are not official NWS values.
T = Trace of Precipitation, MM = Missing Value Source: NWS Daily Summary

Daily Weather History Graph

Daily Weather History Graph

Search for Another Location

Airport or City:

Astronomy

Sep. 01, 2019 Rise Set
Actual Time 6:35 AM EDT 7:39 PM EDT
Civil Twilight 6:08 AM EDT 8:06 PM EDT
Nautical Twilight 5:35 AM EDT 8:39 PM EDT
Astronomical Twilight 5:01 AM EDT 9:13 PM EDT
Moon 9:03 AM EDT (9/1) 9:26 PM EDT (9/1)
Length of Visible Light 13h 58m
Length of Day
13h 03m
Waxing Crescent, 8% of the Moon is Illuminated
Sep 1
Waxing Crescent
Sep 5
First Quarter
Sep 14
Full
Sep 21
Last Quarter
Sep 28
New

Hourly Weather History & Observations

Time (EDT) Temp. Heat Index Dew Point Humidity Pressure Visibility Wind Dir Wind Speed Gust Speed Precip Events Conditions
12:00 AM 71.6 °F - 55.4 °F 57% 30.27 in 10.0 mi ENE 4.6 mph - N/A   Overcast
12:20 AM 71.6 °F - 53.6 °F 53% 30.28 in 10.0 mi ENE 3.5 mph - N/A   Overcast
12:40 AM 71.6 °F - 53.6 °F 53% 30.28 in 10.0 mi ENE 3.5 mph - N/A   Mostly Cloudy
1:00 AM 71.6 °F - 53.6 °F 53% 30.29 in 10.0 mi East 3.5 mph - N/A   Mostly Cloudy
1:20 AM 69.8 °F - 53.6 °F 56% 30.29 in 10.0 mi East 3.5 mph - N/A   Scattered Clouds
1:40 AM 69.8 °F - 55.4 °F 60% 30.29 in 10.0 mi Calm Calm - N/A   Clear
2:00 AM 69.8 °F - 55.4 °F 60% 30.28 in 10.0 mi East 3.5 mph - N/A   Clear
2:20 AM 69.8 °F - 57.2 °F 64% 30.29 in 10.0 mi East 3.5 mph - N/A   Clear
2:40 AM 69.8 °F - 57.2 °F 64% 30.29 in 10.0 mi Calm Calm - N/A   Scattered Clouds
3:00 AM 69.8 °F - 60.8 °F 73% 30.29 in 10.0 mi Calm Calm - N/A   Mostly Cloudy
3:20 AM 69.8 °F - 60.8 °F 73% 30.29 in 10.0 mi Calm Calm - N/A   Overcast
3:40 AM 68.0 °F - 60.8 °F 78% 30.29 in 10.0 mi Calm Calm - N/A   Overcast
4:20 AM 68.0 °F - 60.8 °F 78% 30.29 in 10.0 mi ENE 3.5 mph - N/A   Mostly Cloudy
4:40 AM 68.0 °F - 60.8 °F 78% 30.29 in 10.0 mi Calm Calm - N/A   Mostly Cloudy
5:00 AM 68.0 °F - 60.8 °F 78% 30.29 in 10.0 mi Calm Calm - N/A   Overcast
5:20 AM 68.0 °F - 59.0 °F 73% 30.29 in 10.0 mi East 3.5 mph - N/A   Overcast
5:40 AM 68.0 °F - 57.2 °F 68% 30.29 in 10.0 mi Calm Calm - N/A   Overcast
6:00 AM 68.0 °F - 57.2 °F 68% 30.29 in 10.0 mi ENE 4.6 mph - N/A   Overcast
6:20 AM 68.0 °F - 57.2 °F 68% 30.28 in 10.0 mi East 4.6 mph - N/A   Mostly Cloudy
6:40 AM 68.0 °F - 57.2 °F 68% 30.29 in 10.0 mi ENE 4.6 mph - N/A   Mostly Cloudy
7:00 AM 68.0 °F - 57.2 °F 68% 30.29 in 10.0 mi Calm Calm - N/A   Overcast
7:20 AM 68.0 °F - 57.2 °F 68% 30.29 in 10.0 mi East 4.6 mph - N/A   Scattered Clouds
7:40 AM 69.8 °F - 57.2 °F 64% 30.28 in 10.0 mi East 5.8 mph - N/A   Scattered Clouds
8:00 AM 69.8 °F - 57.2 °F 64% 30.30 in 10.0 mi ESE 5.8 mph - N/A   Scattered Clouds
8:20 AM 69.8 °F - 57.2 °F 64% 30.30 in 10.0 mi East 5.8 mph - N/A   Overcast
8:40 AM 69.8 °F - 59.0 °F 68% 30.31 in 10.0 mi East 3.5 mph - N/A   Overcast
9:00 AM 69.8 °F - 59.0 °F 68% 30.32 in 10.0 mi East 3.5 mph - N/A   Overcast
9:20 AM 69.8 °F - 59.0 °F 68% 30.32 in 10.0 mi ESE 4.6 mph - N/A   Overcast
9:40 AM 69.8 °F - 60.8 °F 73% 30.32 in 10.0 mi ESE 4.6 mph - N/A   Overcast
10:00 AM 71.6 °F - 60.8 °F 69% 30.32 in 10.0 mi Calm Calm - N/A   Overcast
10:20 AM 71.6 °F - 60.8 °F 69% 30.32 in 10.0 mi East 5.8 mph - N/A   Overcast
10:40 AM 73.4 °F - 60.8 °F 65% 30.32 in 10.0 mi ESE 5.8 mph - N/A   Mostly Cloudy
11:00 AM 73.4 °F - 60.8 °F 65% 30.32 in 10.0 mi ESE 3.5 mph - N/A   Mostly Cloudy
11:20 AM 75.2 °F - 60.8 °F 61% 30.32 in 10.0 mi ESE 5.8 mph - N/A   Overcast
11:40 AM 77.0 °F - 60.8 °F 57% 30.32 in 10.0 mi SE 6.9 mph - N/A   Overcast
12:00 PM 77.0 °F - 62.6 °F 61% 30.32 in 10.0 mi SE 4.6 mph - N/A   Overcast
12:20 PM 75.2 °F - 62.6 °F 65% 30.32 in 10.0 mi ESE 4.6 mph - N/A   Overcast
12:40 PM 78.8 °F - 64.4 °F 61% 30.31 in 10.0 mi SE 3.5 mph - N/A   Mostly Cloudy
1:00 PM 78.8 °F - 64.4 °F 61% 30.30 in 10.0 mi SE 4.6 mph - N/A   Mostly Cloudy
1:20 PM 78.8 °F - 64.4 °F 61% 30.30 in 10.0 mi Calm Calm - N/A   Mostly Cloudy
1:40 PM 78.8 °F - 64.4 °F 61% 30.29 in 10.0 mi SSE 3.5 mph - N/A   Scattered Clouds
2:20 PM 80.6 °F 82.7 °F 66.2 °F 61% 30.28 in 10.0 mi ESE 4.6 mph - N/A   Mostly Cloudy
2:40 PM 82.4 °F 84.6 °F 66.2 °F 58% 30.27 in 10.0 mi ESE 3.5 mph - N/A   Mostly Cloudy
3:00 PM 80.6 °F 82.7 °F 66.2 °F 61% 30.26 in 10.0 mi East 4.6 mph - N/A   Mostly Cloudy
3:20 PM 82.4 °F 84.6 °F 66.2 °F 58% 30.26 in 10.0 mi SE 3.5 mph - N/A   Mostly Cloudy
3:40 PM 82.4 °F 84.6 °F 66.2 °F 58% 30.25 in 10.0 mi SE 8.1 mph - N/A   Mostly Cloudy
4:00 PM 84.2 °F 86.6 °F 66.2 °F 55% 30.24 in 10.0 mi SSE 8.1 mph - N/A   Mostly Cloudy
4:20 PM 82.4 °F 84.6 °F 66.2 °F 58% 30.24 in 10.0 mi SSE 9.2 mph - N/A   Mostly Cloudy
4:40 PM 82.4 °F 84.6 °F 66.2 °F 58% 30.24 in 10.0 mi SSE 5.8 mph - N/A   Overcast
5:00 PM 80.6 °F 82.7 °F 66.2 °F 61% 30.23 in 10.0 mi SSE 4.6 mph - N/A   Overcast
5:20 PM 80.6 °F 82.7 °F 66.2 °F 61% 30.24 in 10.0 mi SE 4.6 mph - N/A   Mostly Cloudy
5:40 PM 80.6 °F 82.7 °F 66.2 °F 61% 30.23 in 10.0 mi SE 4.6 mph - N/A   Mostly Cloudy
6:00 PM 80.6 °F 82.7 °F 66.2 °F 61% 30.23 in 10.0 mi SE 4.6 mph - N/A   Overcast
6:20 PM 80.6 °F 82.7 °F 66.2 °F 61% 30.22 in 10.0 mi Calm Calm - N/A   Mostly Cloudy
6:40 PM 78.8 °F - 66.2 °F 65% 30.22 in 10.0 mi SE 5.8 mph - N/A   Mostly Cloudy
7:00 PM 78.8 °F - 69.8 °F 74% 30.22 in 10.0 mi SE 3.5 mph - N/A Rain Rain
7:20 PM 75.2 °F - 69.8 °F 83% 30.22 in 10.0 mi Calm Calm - N/A Rain Light Rain
7:40 PM 75.2 °F - 69.8 °F 83% 30.22 in 7.0 mi Calm Calm - 0.01 in Rain Light Rain
8:00 PM 73.4 °F - 69.8 °F 88% 30.21 in 10.0 mi ESE 3.5 mph - N/A   Overcast
8:20 PM 73.4 °F - 68.0 °F 83% 30.21 in 10.0 mi ESE 4.6 mph - N/A   Scattered Clouds
8:40 PM 73.4 °F - 68.0 °F 83% 30.21 in 10.0 mi SE 5.8 mph - N/A   Clear
9:00 PM 71.6 °F - 66.2 °F 83% 30.21 in 10.0 mi SE 5.8 mph - N/A   Mostly Cloudy
9:20 PM 71.6 °F - 66.2 °F 83% 30.21 in 10.0 mi SE 4.6 mph - N/A   Mostly Cloudy
9:40 PM 71.6 °F - 66.2 °F 83% 30.21 in 10.0 mi SE 8.1 mph - N/A   Mostly Cloudy
10:40 PM 71.6 °F - 66.2 °F 83% 30.20 in 10.0 mi SE 6.9 mph - N/A   Scattered Clouds
11:00 PM 71.6 °F - 66.2 °F 83% 30.19 in 10.0 mi SE 6.9 mph - N/A   Scattered Clouds
11:20 PM 71.6 °F - 66.2 °F 83% 30.19 in 10.0 mi SE 5.8 mph - N/A   Scattered Clouds
11:40 PM 69.8 °F - 66.2 °F 88% 30.19 in 10.0 mi SE 6.9 mph - N/A   Mostly Cloudy